Regional Weather Roundup
Issued by NWS Albany, NY

Home | Current Version | Previous Version | Graphics & Text | Print | Product List | Glossary Off
Versions: 1 2 3 4 5 6 7 8 9 10 11 12 13 14 15 16 17 18 19 20 21 22 23 24 25 26 27 28 29 30 31 32 33 34 35 36 37 38 39 40 41 42 43 44 45 46 47 48 49 50

000
ASUS41 KALY 010010
RWRALY

NEW YORK STATE HOURLY WEATHER ROUNDUP
NATIONAL WEATHER SERVICE ALBANY NY
800 PM EDT MON AUG 31 2015

NOTE: "FAIR" INDICATES FEW OR NO CLOUDS BELOW 12,000 FEET WITH NO
SIGNIFICANT WEATHER AND/OR NO OBSTRUCTIONS TO VISIBILITY.

NYZ032-033-038>043-046>054-057>066-NYZ062>081-010100-
EAST


CITY           SKY/WX    TMP DP  RH WIND       PRES   REMARKS
ALBANY         PTCLDY    79  62  56 NW9       29.97R
GLENS FALLS    CLEAR     76  61  59 W6        29.95R
POUGHKEEPSIE   CLEAR     79  68  69 CALM      29.94R
NEWBURGH       PTCLDY    81  70  69 W7        29.98R
MONTGOMERY     MOCLDY    80  69  69 W5        29.97R
WHITE PLAINS   PTCLDY    81  64  56 W3        29.97R
ISLIP          MOCLDY    80  69  69 SW7       29.94S
NEW YORK CITY  MOCLDY    88  63  43 W10       29.95R
CENTRAL PARK   CLEAR     87  63  44 W6        29.99R
$$

NYZ005>009-017-018-044>046-055-056-010100-
CENTRAL


CITY           SKY/WX    TMP DP  RH WIND       PRES   REMARKS
FULTON         CLEAR     71  64  78 W3        30.01R
SYRACUSE       PTCLDY    75  65  70 W7        30.00R
ROME           CLEAR     72  64  76 NW5       30.02R
ELMIRA         CLEAR     75  66  73 CALM      30.02R
BINGHAMTON     CLEAR     75  63  66 NW6       30.05R
MONTICELLO     CLEAR     75  64  69 W5        30.05R
$$

NYZ026>034-041>043-010100-
NORTH


CITY           SKY/WX    TMP DP  RH WIND       PRES   REMARKS
WATERTOWN      PTCLDY    71  66  84 S3        29.99R HAZE
FORT DRUM      NOT AVBL
MASSENA        PTCLDY    67  63  87 CALM      29.98R
SARANAC LAKE   PTCLDY    68  63  84 CALM      30.01R
PLATTSBURGH    CLEAR     71  64  78 W3        29.95R
$$

NYZ001>004-010>016-019>021-010100-
WEST


CITY           SKY/WX    TMP DP  RH WIND       PRES   REMARKS
NIAGARA FALLS  PTCLDY    74  67  78 SW7       30.01S
BUFFALO        PTCLDY    73  67  81 SW10      30.03S
DUNKIRK        CLEAR     73  66  78 SW7       30.05R
JAMESTOWN      CLEAR     72  61  68 W8        30.09S
WELLSVILLE     CLEAR     73  63  70 NW7       30.12R
ROCHESTER      MOCLDY    76  67  73 W3        30.02R
PENN YAN       CLEAR     74  64  71 CALM      30.04R
$$

             KEY
       WCI = WIND CHILL INDEX
       VSB = VISIBILITY
       HX  = HEAT INDEX
$$



USA.gov is the U.S. government's official web portal to all federal, state and local government web resources and services.